owner,sensor,date,latitude,longitude,vertical_datum,direction_of_sea_water_velocity,sea_water_speed,upward_sea_water_velocity,qcFlag 
TABS,ioos:station:wmo:42044:1,2015-11-01T00:00:00Z,26.1914,-97.0507,2.0,196.8435587,2.277718156,-99999.0,'11133222,11111222,99999999' 
TABS,ioos:station:wmo:42044:1,2015-11-01T00:30:00Z,26.1914,-97.0507,2.0,146.8477723,7.680162759,-99999.0,'11133222,11111222,99999999' 
TABS,ioos:station:wmo:42044:1,2015-11-01T01:00:00Z,26.1914,-97.0507,2.0,157.4895966,11.25771291,-99999.0,'11111222,11111222,99999999' 
TABS,ioos:station:wmo:42044:1,2015-11-01T01:30:00Z,26.1914,-97.0507,2.0,165.9123306,10.84619749,-99999.0,'11111222,11111222,99999999' 
TABS,ioos:station:wmo:42044:1,2015-11-01T02:00:00Z,26.1914,-97.0507,2.0,173.6333491,16.86400012,-99999.0,'11111222,11111222,99999999' 
TABS,ioos:station:wmo:42044:1,2015-11-01T02:30:00Z,26.1914,-97.0507,2.0,167.7269774,21.12272946,-99999.0,'11111222,11111222,99999999' 
TABS,ioos:station:wmo:42044:1,2015-11-01T03:00:00Z,26.1914,-97.0507,2.0,173.6596126,21.64237048,-99999.0,'11111222,11111222,99999999' 
TABS,ioos:station:wmo:42044:1,2015-11-01T03:30:00Z,26.1914,-97.0507,2.0,172.4297419,26.18824355,-99999.0,'11111222,11111222,99999999' 
TABS,ioos:station:wmo:42044:1,2015-11-01T04:00:00Z,26.1914,-97.0507,2.0,177.0078845,24.52342757,-99999.0,'11111222,11111222,99999999' 
TABS,ioos:station:wmo:42044:1,2015-11-01T04:30:00Z,26.1914,-97.0507,2.0,171.3025471,30.28828156,-99999.0,'11111222,11111222,99999999' 
TABS,ioos:station:wmo:42044:1,2015-11-01T05:00:00Z,26.1914,-97.0507,2.0,178.2818996,37.02664176,-99999.0,'11111222,11111222,99999999' 
TABS,ioos:station:wmo:42044:1,2015-11-01T05:30:00Z,26.1914,-97.0507,2.0,176.0900845,39.45181491,-99999.0,'11111222,11111222,99999999' 
TABS,ioos:station:wmo:42044:1,2015-11-01T06:00:00Z,26.1914,-97.0507,2.0,176.5856692,41.64391072,-99999.0,'11111222,11111222,99999999' 
TABS,ioos:station:wmo:42044:1,2015-11-01T06:30:00Z,26.1914,-97.0507,2.0,175.1460903,43.84723709,-99999.0,'11111222,11111222,99999999' 
TABS,ioos:station:wmo:42044:1,2015-11-01T07:00:00Z,26.1914,-97.0507,2.0,174.230568,42.77667121,-99999.0,'11111222,11111222,99999999' 
TABS,ioos:station:wmo:42044:1,2015-11-01T07:30:00Z,26.1914,-97.0507,2.0,173.7689423,37.03880128,-99999.0,'11111222,11111222,99999999' 
TABS,ioos:station:wmo:42044:1,2015-11-01T08:00:00Z,26.1914,-97.0507,2.0,175.7890511,42.08359538,-99999.0,'11111222,11111222,99999999' 
TABS,ioos:station:wmo:42044:1,2015-11-01T08:30:00Z,26.1914,-97.0507,2.0,177.2134444,41.75937021,-99999.0,'11111222,11111222,99999999' 
TABS,ioos:station:wmo:42044:1,2015-11-01T09:00:00Z,26.1914,-97.0507,2.0,178.2015977,38.87914608,-99999.0,'11111222,11111222,99999999' 
TABS,ioos:station:wmo:42044:1,2015-11-01T09:30:00Z,26.1914,-97.0507,2.0,178.3177817,37.81629411,-99999.0,'11111222,11111222,99999999' 
TABS,ioos:station:wmo:42044:1,2015-11-01T10:00:00Z,26.1914,-97.0507,2.0,181.219976,37.09841236,-99999.0,'11111222,11111222,99999999' 
TABS,ioos:station:wmo:42044:1,2015-11-01T10:30:00Z,26.1914,-97.0507,2.0,179.7088692,35.45045698,-99999.0,'11111222,11111222,99999999' 
TABS,ioos:station:wmo:42044:1,2015-11-01T11:00:00Z,26.1914,-97.0507,2.0,178.6999747,36.58941514,-99999.0,'11111222,11111222,99999999' 
TABS,ioos:station:wmo:42044:1,2015-11-01T11:30:00Z,26.1914,-97.0507,2.0,181.5151104,36.30269549,-99999.0,'11111222,11111222,99999999' 
TABS,ioos:station:wmo:42044:1,2015-11-01T12:00:00Z,26.1914,-97.0507,2.0,181.3990475,33.5800134,-99999.0,'11111222,11111222,99999999' 
TABS,ioos:station:wmo:42044:1,2015-11-01T12:30:00Z,26.1914,-97.0507,2.0,180.0522261,32.78001373,-99999.0,'11111222,11111222,99999999' 
TABS,ioos:station:wmo:42044:1,2015-11-01T13:00:00Z,26.1914,-97.0507,2.0,183.3311501,33.55670574,-99999.0,'11111222,11111222,99999999' 
TABS,ioos:station:wmo:42044:1,2015-11-01T13:30:00Z,26.1914,-97.0507,2.0,179.0135494,32.53481981,-99999.0,'11111222,11111222,99999999' 
TABS,ioos:station:wmo:42044:1,2015-11-01T14:00:00Z,26.1914,-97.0507,2.0,178.8302801,31.35653201,-99999.0,'11111222,11111222,99999999' 
TABS,ioos:station:wmo:42044:1,2015-11-01T14:30:00Z,26.1914,-97.0507,2.0,176.866101,32.37841565,-99999.0,'11111222,11111222,99999999' 
TABS,ioos:station:wmo:42044:1,2015-11-01T15:00:00Z,26.1914,-97.0507,2.0,171.5262309,34.67855389,-99999.0,'11111222,11111222,99999999' 
TABS,ioos:station:wmo:42044:1,2015-11-01T15:30:00Z,26.1914,-97.0507,2.0,180.9145447,33.82431078,-99999.0,'11111222,11111222,99999999' 
TABS,ioos:station:wmo:42044:1,2015-11-01T16:00:00Z,26.1914,-97.0507,2.0,178.1056906,32.97801844,-99999.0,'11111222,11111222,99999999' 
TABS,ioos:station:wmo:42044:1,2015-11-01T16:30:00Z,26.1914,-97.0507,2.0,172.909876,32.40780153,-99999.0,'11111222,11111222,99999999' 
TABS,ioos:station:wmo:42044:1,2015-11-01T17:00:00Z,26.1914,-97.0507,2.0,175.5906099,37.72163968,-99999.0,'11111222,11111222,99999999' 
TABS,ioos:station:wmo:42044:1,2015-11-01T17:30:00Z,26.1914,-97.0507,2.0,176.1889166,35.80917899,-99999.0,'11111222,11111222,99999999' 
TABS,ioos:station:wmo:42044:1,2015-11-01T18:00:00Z,26.1914,-97.0507,2.0,182.5725288,31.41166185,-99999.0,'11111222,11111222,99999999' 
TABS,ioos:station:wmo:42044:1,2015-11-01T18:30:00Z,26.1914,-97.0507,2.0,200.8294277,30.87814761,-99999.0,'11111222,11111222,99999999' 
TABS,ioos:station:wmo:42044:1,2015-11-01T19:00:00Z,26.1914,-97.0507,2.0,215.4129804,21.95109337,-99999.0,'11111222,11111222,99999999' 
TABS,ioos:station:wmo:42044:1,2015-11-01T19:30:00Z,26.1914,-97.0507,2.0,236.8510722,18.48898321,-99999.0,'11111222,11111222,99999999' 
TABS,ioos:station:wmo:42044:1,2015-11-01T20:00:00Z,26.1914,-97.0507,2.0,252.8262822,15.51156988,-99999.0,'11111222,11111222,99999999' 
TABS,ioos:station:wmo:42044:1,2015-11-01T20:30:00Z,26.1914,-97.0507,2.0,265.6287923,14.17121378,-99999.0,'11111222,11111222,99999999' 
TABS,ioos:station:wmo:42044:1,2015-11-01T21:00:00Z,26.1914,-97.0507,2.0,265.2407625,9.884073047,-99999.0,'11133222,11111222,99999999' 
TABS,ioos:station:wmo:42044:1,2015-11-01T21:30:00Z,26.1914,-97.0507,2.0,283.3275027,11.36608992,-99999.0,'11111222,11111222,99999999' 
TABS,ioos:station:wmo:42044:1,2015-11-01T22:00:00Z,26.1914,-97.0507,2.0,284.3263191,11.0330866,-99999.0,'11111222,11111222,99999999' 
TABS,ioos:station:wmo:42044:1,2015-11-01T22:30:00Z,26.1914,-97.0507,2.0,312.5919371,11.27416959,-99999.0,'11111222,11111222,99999999' 
TABS,ioos:station:wmo:42044:1,2015-11-01T23:00:00Z,26.1914,-97.0507,2.0,307.868632,15.03628279,-99999.0,'11111222,11111222,99999999' 
TABS,ioos:station:wmo:42044:1,2015-11-01T23:30:00Z,26.1914,-97.0507,2.0,313.2403025,13.12302176,-99999.0,'11111222,11111222,99999999' 
TABS,ioos:station:wmo:42044:1,2015-11-02T00:00:00Z,26.1914,-97.0507,2.0,306.2165207,12.27079867,-99999.0,'11111222,11111222,99999999' 
TABS,ioos:station:wmo:42044:1,2015-11-02T00:30:00Z,26.1914,-97.0507,2.0,322.7733596,11.55422434,-99999.0,'11111222,11111222,99999999' 
TABS,ioos:station:wmo:42044:1,2015-11-02T01:00:00Z,26.1914,-97.0507,2.0,325.9448707,12.17869041,-99999.0,'11111222,11111222,99999999' 
TABS,ioos:station:wmo:42044:1,2015-11-02T01:30:00Z,26.1914,-97.0507,2.0,342.4962286,9.342601351,-99999.0,'11133222,11111222,99999999' 
TABS,ioos:station:wmo:42044:1,2015-11-02T02:00:00Z,26.1914,-97.0507,2.0,330.5564361,10.15114279,-99999.0,'11111222,11111222,99999999' 
TABS,ioos:station:wmo:42044:1,2015-11-02T02:30:00Z,26.1914,-97.0507,2.0,356.8250203,6.860532049,-99999.0,'11133222,11111222,99999999' 
TABS,ioos:station:wmo:42044:1,2015-11-02T03:00:00Z,26.1914,-97.0507,2.0,341.3411195,5.657358041,-99999.0,'11133222,11111222,99999999' 
TABS,ioos:station:wmo:42044:1,2015-11-02T03:30:00Z,26.1914,-97.0507,2.0,349.5448202,5.786069478,-99999.0,'11133222,11111222,99999999' 
TABS,ioos:station:wmo:42044:1,2015-11-02T04:00:00Z,26.1914,-97.0507,2.0,351.4760264,4.317696145,-99999.0,'11133222,11111222,99999999' 
TABS,ioos:station:wmo:42044:1,2015-11-02T04:30:00Z,26.1914,-97.0507,2.0,52.71465577,4.688123292,-99999.0,'11133222,11111222,99999999' 
TABS,ioos:station:wmo:42044:1,2015-11-02T05:00:00Z,26.1914,-97.0507,2.0,86.53495295,5.459981685,-99999.0,'11133222,11111222,99999999' 
TABS,ioos:station:wmo:42044:1,2015-11-02T05:30:00Z,26.1914,-97.0507,2.0,106.02583,5.86804908,-99999.0,'11133222,11111222,99999999' 
TABS,ioos:station:wmo:42044:1,2015-11-02T06:00:00Z,26.1914,-97.0507,2.0,131.6387733,8.924897759,-99999.0,'11133222,11111222,99999999' 
TABS,ioos:station:wmo:42044:1,2015-11-02T06:30:00Z,26.1914,-97.0507,2.0,145.9569309,8.5564128,-99999.0,'11133222,11111222,99999999' 
TABS,ioos:station:wmo:42044:1,2015-11-02T07:00:00Z,26.1914,-97.0507,2.0,139.8438838,9.629833851,-99999.0,'11133222,11111222,99999999' 
TABS,ioos:station:wmo:42044:1,2015-11-02T07:30:00Z,26.1914,-97.0507,2.0,142.661419,8.804294407,-99999.0,'11133222,11111222,99999999' 
TABS,ioos:station:wmo:42044:1,2015-11-02T08:00:00Z,26.1914,-97.0507,2.0,172.7205691,14.28513213,-99999.0,'11111222,11111222,99999999' 
TABS,ioos:station:wmo:42044:1,2015-11-02T08:30:00Z,26.1914,-97.0507,2.0,151.66793,14.93956492,-99999.0,'11111222,11111222,99999999' 
TABS,ioos:station:wmo:42044:1,2015-11-02T09:00:00Z,26.1914,-97.0507,2.0,147.3927825,17.46230798,-99999.0,'11111222,11111222,99999999' 
TABS,ioos:station:wmo:42044:1,2015-11-02T09:30:00Z,26.1914,-97.0507,2.0,146.661533,21.23432363,-99999.0,'11111222,11111222,99999999' 
TABS,ioos:station:wmo:42044:1,2015-11-02T10:00:00Z,26.1914,-97.0507,2.0,157.7662209,21.90895935,-99999.0,'11111222,11111222,99999999' 
TABS,ioos:station:wmo:42044:1,2015-11-02T10:30:00Z,26.1914,-97.0507,2.0,167.1611291,20.65642031,-99999.0,'11111222,11111222,99999999' 
TABS,ioos:station:wmo:42044:1,2015-11-02T11:00:00Z,26.1914,-97.0507,2.0,176.8600197,20.63096944,-99999.0,'11111222,11111222,99999999' 
TABS,ioos:station:wmo:42044:1,2015-11-02T11:30:00Z,26.1914,-97.0507,2.0,183.7852158,18.63064679,-99999.0,'11111222,11111222,99999999' 
TABS,ioos:station:wmo:42044:1,2015-11-02T12:00:00Z,26.1914,-97.0507,2.0,193.7142358,19.86640632,-99999.0,'11111222,11111222,99999999' 
TABS,ioos:station:wmo:42044:1,2015-11-02T12:30:00Z,26.1914,-97.0507,2.0,198.0437954,19.46743435,-99999.0,'11111222,11111222,99999999' 
TABS,ioos:station:wmo:42044:1,2015-11-02T13:00:00Z,26.1914,-97.0507,2.0,203.0680346,18.47748901,-99999.0,'11111222,11111222,99999999' 
TABS,ioos:station:wmo:42044:1,2015-11-02T13:30:00Z,26.1914,-97.0507,2.0,214.8303641,16.5805006,-99999.0,'11111222,11111222,99999999' 
TABS,ioos:station:wmo:42044:1,2015-11-02T14:00:00Z,26.1914,-97.0507,2.0,217.5246138,11.19673167,-99999.0,'11111222,11111222,99999999' 
TABS,ioos:station:wmo:42044:1,2015-11-02T14:30:00Z,26.1914,-97.0507,2.0,203.1074766,24.84320833,-99999.0,'11111222,11111222,99999999' 
TABS,ioos:station:wmo:42044:1,2015-11-02T15:00:00Z,26.1914,-97.0507,2.0,204.4615781,21.2032639,-99999.0,'11111222,11111222,99999999' 
TABS,ioos:station:wmo:42044:1,2015-11-02T15:30:00Z,26.1914,-97.0507,2.0,209.1392649,20.31058099,-99999.0,'11111222,11111222,99999999' 
TABS,ioos:station:wmo:42044:1,2015-11-02T16:00:00Z,26.1914,-97.0507,2.0,212.2167526,13.48644505,-99999.0,'11111222,11111222,99999999' 
TABS,ioos:station:wmo:42044:1,2015-11-02T16:30:00Z,26.1914,-97.0507,2.0,209.9958727,26.30305876,-99999.0,'11111222,11111222,99999999' 
TABS,ioos:station:wmo:42044:1,2015-11-02T17:00:00Z,26.1914,-97.0507,2.0,212.2162603,23.29679162,-99999.0,'11111222,11111222,99999999' 
TABS,ioos:station:wmo:42044:1,2015-11-02T17:30:00Z,26.1914,-97.0507,2.0,225.8299979,22.44592613,-99999.0,'11111222,11111222,99999999' 
TABS,ioos:station:wmo:42044:1,2015-11-02T18:00:00Z,26.1914,-97.0507,2.0,228.0165814,20.69033591,-99999.0,'11111222,11111222,99999999' 
TABS,ioos:station:wmo:42044:1,2015-11-02T18:30:00Z,26.1914,-97.0507,2.0,231.1203212,19.56403077,-99999.0,'11111222,11111222,99999999' 
TABS,ioos:station:wmo:42044:1,2015-11-02T19:00:00Z,26.1914,-97.0507,2.0,237.3824485,18.96020306,-99999.0,'11111222,11111222,99999999' 
TABS,ioos:station:wmo:42044:1,2015-11-02T19:30:00Z,26.1914,-97.0507,2.0,243.8817524,17.76386501,-99999.0,'11111222,11111222,99999999' 
TABS,ioos:station:wmo:42044:1,2015-11-02T20:00:00Z,26.1914,-97.0507,2.0,250.5759127,15.57653684,-99999.0,'11111222,11111222,99999999' 
TABS,ioos:station:wmo:42044:1,2015-11-02T20:30:00Z,26.1914,-97.0507,2.0,250.7551021,15.44294337,-99999.0,'11111222,11111222,99999999' 
TABS,ioos:station:wmo:42044:1,2015-11-02T21:00:00Z,26.1914,-97.0507,2.0,262.6659356,15.66817156,-99999.0,'11111222,11111222,99999999' 
TABS,ioos:station:wmo:42044:1,2015-11-02T21:30:00Z,26.1914,-97.0507,2.0,268.0061579,14.94904679,-99999.0,'11111222,11111222,99999999' 
TABS,ioos:station:wmo:42044:1,2015-11-02T22:00:00Z,26.1914,-97.0507,2.0,287.0826572,16.47689595,-99999.0,'11111222,11111222,99999999' 
TABS,ioos:station:wmo:42044:1,2015-11-02T22:30:00Z,26.1914,-97.0507,2.0,286.9133899,16.43066645,-99999.0,'11111222,11111222,99999999' 
TABS,ioos:station:wmo:42044:1,2015-11-02T23:00:00Z,26.1914,-97.0507,2.0,292.3904514,18.79707424,-99999.0,'11111222,11111222,99999999' 
TABS,ioos:station:wmo:42044:1,2015-11-02T23:30:00Z,26.1914,-97.0507,2.0,299.692887,21.72221213,-99999.0,'11111222,11111222,99999999' 
TABS,ioos:station:wmo:42044:1,2015-11-03T00:00:00Z,26.1914,-97.0507,2.0,311.7742003,21.36019195,-99999.0,'11111222,11111222,99999999' 
TABS,ioos:station:wmo:42044:1,2015-11-03T00:30:00Z,26.1914,-97.0507,2.0,322.8801344,22.43621403,-99999.0,'11111222,11111222,99999999' 
TABS,ioos:station:wmo:42044:1,2015-11-03T01:00:00Z,26.1914,-97.0507,2.0,325.1921519,25.01619475,-99999.0,'11111222,11111222,99999999' 
TABS,ioos:station:wmo:42044:1,2015-11-03T01:30:00Z,26.1914,-97.0507,2.0,334.3806784,24.12151322,-99999.0,'11111222,11111222,99999999' 
TABS,ioos:station:wmo:42044:1,2015-11-03T02:00:00Z,26.1914,-97.0507,2.0,338.9346522,23.42554162,-99999.0,'11111222,11111222,99999999' 
TABS,ioos:station:wmo:42044:1,2015-11-03T02:30:00Z,26.1914,-97.0507,2.0,342.250577,26.17604439,-99999.0,'11111222,11111222,99999999' 
TABS,ioos:station:wmo:42044:1,2015-11-03T03:00:00Z,26.1914,-97.0507,2.0,346.5442769,28.01915238,-99999.0,'11111222,11111222,99999999' 
TABS,ioos:station:wmo:42044:1,2015-11-03T03:30:00Z,26.1914,-97.0507,2.0,354.8242179,28.15480776,-99999.0,'11111222,11111222,99999999' 
TABS,ioos:station:wmo:42044:1,2015-11-03T04:00:00Z,26.1914,-97.0507,2.0,354.2936088,28.66204633,-99999.0,'11111222,11111222,99999999' 
TABS,ioos:station:wmo:42044:1,2015-11-03T04:30:00Z,26.1914,-97.0507,2.0,356.6246494,29.5512707,-99999.0,'11111222,11111222,99999999' 
TABS,ioos:station:wmo:42044:1,2015-11-03T05:00:00Z,26.1914,-97.0507,2.0,358.6591527,28.62784134,-99999.0,'11111222,11111222,99999999' 
TABS,ioos:station:wmo:42044:1,2015-11-03T05:30:00Z,26.1914,-97.0507,2.0,1.241357287,29.54693216,-99999.0,'11111222,11111222,99999999' 
TABS,ioos:station:wmo:42044:1,2015-11-03T06:00:00Z,26.1914,-97.0507,2.0,358.5846259,30.35926547,-99999.0,'11111222,11111222,99999999' 
TABS,ioos:station:wmo:42044:1,2015-11-03T06:30:00Z,26.1914,-97.0507,2.0,359.5765532,28.4007764,-99999.0,'11111222,11144222,99999999' 
TABS,ioos:station:wmo:42044:1,2015-11-03T07:00:00Z,26.1914,-97.0507,2.0,4.960145895,27.87437892,-99999.0,'11111222,11111222,99999999' 
TABS,ioos:station:wmo:42044:1,2015-11-03T07:30:00Z,26.1914,-97.0507,2.0,8.391812098,28.50518549,-99999.0,'11111222,11111222,99999999' 
TABS,ioos:station:wmo:42044:1,2015-11-03T08:00:00Z,26.1914,-97.0507,2.0,8.545023836,26.18060733,-99999.0,'11111222,11111222,99999999' 
TABS,ioos:station:wmo:42044:1,2015-11-03T08:30:00Z,26.1914,-97.0507,2.0,8.893380214,23.99850412,-99999.0,'11111222,11111222,99999999' 
TABS,ioos:station:wmo:42044:1,2015-11-03T09:00:00Z,26.1914,-97.0507,2.0,10.02598504,26.07822847,-99999.0,'11111222,11111222,99999999' 
TABS,ioos:station:wmo:42044:1,2015-11-03T09:30:00Z,26.1914,-97.0507,2.0,12.22819551,25.8259269,-99999.0,'11111222,11111222,99999999' 
TABS,ioos:station:wmo:42044:1,2015-11-03T10:00:00Z,26.1914,-97.0507,2.0,15.14237727,21.3616666,-99999.0,'11111222,11111222,99999999' 
TABS,ioos:station:wmo:42044:1,2015-11-03T10:30:00Z,26.1914,-97.0507,2.0,18.32612015,24.93460447,-99999.0,'11111222,11111222,99999999' 
TABS,ioos:station:wmo:42044:1,2015-11-03T11:00:00Z,26.1914,-97.0507,2.0,16.85262269,27.93989263,-99999.0,'11111222,11111222,99999999' 
TABS,ioos:station:wmo:42044:1,2015-11-03T11:30:00Z,26.1914,-97.0507,2.0,20.49316502,26.59293515,-99999.0,'11111222,11111222,99999999' 
TABS,ioos:station:wmo:42044:1,2015-11-03T12:00:00Z,26.1914,-97.0507,2.0,15.75483214,24.34454764,-99999.0,'11111222,11111222,99999999' 
TABS,ioos:station:wmo:42044:1,2015-11-03T12:30:00Z,26.1914,-97.0507,2.0,19.88485873,24.37315121,-99999.0,'11111222,11111222,99999999' 
TABS,ioos:station:wmo:42044:1,2015-11-03T13:00:00Z,26.1914,-97.0507,2.0,17.28212618,26.55902295,-99999.0,'11111222,11111222,99999999' 
TABS,ioos:station:wmo:42044:1,2015-11-03T13:30:00Z,26.1914,-97.0507,2.0,22.21511303,25.47063603,-99999.0,'11111222,11111222,99999999' 
TABS,ioos:station:wmo:42044:1,2015-11-03T14:00:00Z,26.1914,-97.0507,2.0,16.28259839,24.75280186,-99999.0,'11111222,11111222,99999999' 
TABS,ioos:station:wmo:42044:1,2015-11-03T14:30:00Z,26.1914,-97.0507,2.0,28.28158316,22.09779401,-99999.0,'11111222,11111222,99999999' 
TABS,ioos:station:wmo:42044:1,2015-11-03T15:00:00Z,26.1914,-97.0507,2.0,23.35051897,25.28051621,-99999.0,'11111222,11111222,99999999' 
TABS,ioos:station:wmo:42044:1,2015-11-03T15:30:00Z,26.1914,-97.0507,2.0,26.55372202,22.32490314,-99999.0,'11111222,11111222,99999999' 
TABS,ioos:station:wmo:42044:1,2015-11-03T16:00:00Z,26.1914,-97.0507,2.0,25.58616416,23.29428471,-99999.0,'11111222,11111222,99999999' 
TABS,ioos:station:wmo:42044:1,2015-11-03T16:30:00Z,26.1914,-97.0507,2.0,24.13295591,19.8115219,-99999.0,'11111222,11111222,99999999' 
TABS,ioos:station:wmo:42044:1,2015-11-03T17:00:00Z,26.1914,-97.0507,2.0,23.30675569,23.68247031,-99999.0,'11111222,11111222,99999999' 
TABS,ioos:station:wmo:42044:1,2015-11-03T17:30:00Z,26.1914,-97.0507,2.0,27.74995156,24.44097584,-99999.0,'11111222,11111222,99999999' 
TABS,ioos:station:wmo:42044:1,2015-11-03T18:00:00Z,26.1914,-97.0507,2.0,29.57910291,23.98593755,-99999.0,'11111222,11111222,99999999' 
TABS,ioos:station:wmo:42044:1,2015-11-03T18:30:00Z,26.1914,-97.0507,2.0,29.6003589,24.07149767,-99999.0,'11111222,11111222,99999999' 
TABS,ioos:station:wmo:42044:1,2015-11-03T19:00:00Z,26.1914,-97.0507,2.0,28.84128687,23.98509954,-99999.0,'11111222,11111222,99999999' 
TABS,ioos:station:wmo:42044:1,2015-11-03T19:30:00Z,26.1914,-97.0507,2.0,31.45102168,24.20618516,-99999.0,'11111222,11111222,99999999' 
TABS,ioos:station:wmo:42044:1,2015-11-03T20:00:00Z,26.1914,-97.0507,2.0,22.79799401,23.27857384,-99999.0,'11111222,11111222,99999999' 
TABS,ioos:station:wmo:42044:1,2015-11-03T20:30:00Z,26.1914,-97.0507,2.0,15.41584504,23.47455005,-99999.0,'11111222,11111222,99999999' 
TABS,ioos:station:wmo:42044:1,2015-11-03T21:00:00Z,26.1914,-97.0507,2.0,18.17922989,23.36630266,-99999.0,'11111222,11111222,99999999' 
TABS,ioos:station:wmo:42044:1,2015-11-03T21:30:00Z,26.1914,-97.0507,2.0,11.0722803,19.37055756,-99999.0,'11111222,11111222,99999999' 
TABS,ioos:station:wmo:42044:1,2015-11-03T22:00:00Z,26.1914,-97.0507,2.0,20.18122831,20.02968048,-99999.0,'11111222,11111222,99999999' 
TABS,ioos:station:wmo:42044:1,2015-11-03T22:30:00Z,26.1914,-97.0507,2.0,21.92770117,16.87046235,-99999.0,'11111222,11111222,99999999' 
TABS,ioos:station:wmo:42044:1,2015-11-03T23:00:00Z,26.1914,-97.0507,2.0,26.89124468,17.28955754,-99999.0,'11111222,11111222,99999999' 
TABS,ioos:station:wmo:42044:1,2015-11-03T23:30:00Z,26.1914,-97.0507,2.0,32.15998389,16.51376698,-99999.0,'11111222,11111222,99999999' 
TABS,ioos:station:wmo:42044:1,2015-11-04T00:00:00Z,26.1914,-97.0507,2.0,40.77248489,17.07358779,-99999.0,'11111222,11111222,99999999' 
TABS,ioos:station:wmo:42044:1,2015-11-04T00:30:00Z,26.1914,-97.0507,2.0,27.74790934,17.33321955,-99999.0,'11111222,11111222,99999999' 
TABS,ioos:station:wmo:42044:1,2015-11-04T01:00:00Z,26.1914,-97.0507,2.0,31.22301513,13.27241124,-99999.0,'11111222,11111222,99999999' 
TABS,ioos:station:wmo:42044:1,2015-11-04T01:30:00Z,26.1914,-97.0507,2.0,21.94598719,11.05076468,-99999.0,'11111222,11111222,99999999' 
TABS,ioos:station:wmo:42044:1,2015-11-04T02:00:00Z,26.1914,-97.0507,2.0,18.91280298,12.8962165,-99999.0,'11111222,11111222,99999999' 
TABS,ioos:station:wmo:42044:1,2015-11-04T02:30:00Z,26.1914,-97.0507,2.0,21.3783162,12.31750786,-99999.0,'11111222,11111222,99999999' 
TABS,ioos:station:wmo:42044:1,2015-11-04T03:00:00Z,26.1914,-97.0507,2.0,17.56629252,10.63596258,-99999.0,'11111222,11111222,99999999' 
TABS,ioos:station:wmo:42044:1,2015-11-04T03:30:00Z,26.1914,-97.0507,2.0,16.37298869,11.60042241,-99999.0,'11111222,11111222,99999999' 
TABS,ioos:station:wmo:42044:1,2015-11-04T04:00:00Z,26.1914,-97.0507,2.0,18.07590053,10.087864,-99999.0,'11111222,11111222,99999999' 
TABS,ioos:station:wmo:42044:1,2015-11-04T04:30:00Z,26.1914,-97.0507,2.0,20.45164495,14.10933379,-99999.0,'11111222,11111222,99999999' 
TABS,ioos:station:wmo:42044:1,2015-11-04T05:00:00Z,26.1914,-97.0507,2.0,28.57795613,11.20514168,-99999.0,'11111222,11111222,99999999' 
TABS,ioos:station:wmo:42044:1,2015-11-04T05:30:00Z,26.1914,-97.0507,2.0,18.26588109,9.635502063,-99999.0,'11133222,11111222,99999999' 
TABS,ioos:station:wmo:42044:1,2015-11-04T06:00:00Z,26.1914,-97.0507,2.0,26.44218168,8.331608488,-99999.0,'11133222,11111222,99999999' 
TABS,ioos:station:wmo:42044:1,2015-11-04T06:30:00Z,26.1914,-97.0507,2.0,29.034324,10.89977064,-99999.0,'11111222,11111222,99999999' 
TABS,ioos:station:wmo:42044:1,2015-11-04T07:00:00Z,26.1914,-97.0507,2.0,14.09033372,10.31019398,-99999.0,'11111222,11111222,99999999' 
TABS,ioos:station:wmo:42044:1,2015-11-04T07:30:00Z,26.1914,-97.0507,2.0,25.49410708,8.85190375,-99999.0,'11133222,11111222,99999999' 
TABS,ioos:station:wmo:42044:1,2015-11-04T08:00:00Z,26.1914,-97.0507,2.0,19.42128056,11.7590901,-99999.0,'11111222,11111222,99999999' 
TABS,ioos:station:wmo:42044:1,2015-11-04T08:30:00Z,26.1914,-97.0507,2.0,21.17890497,12.81559207,-99999.0,'11111222,11111222,99999999' 
TABS,ioos:station:wmo:42044:1,2015-11-04T09:00:00Z,26.1914,-97.0507,2.0,13.90286506,10.40480658,-99999.0,'11111222,11111222,99999999' 
TABS,ioos:station:wmo:42044:1,2015-11-04T09:30:00Z,26.1914,-97.0507,2.0,8.465788216,10.86841755,-99999.0,'11111222,11111222,99999999' 
TABS,ioos:station:wmo:42044:1,2015-11-04T10:00:00Z,26.1914,-97.0507,2.0,12.76734101,10.95074427,-99999.0,'11111222,11111222,99999999' 
TABS,ioos:station:wmo:42044:1,2015-11-04T10:30:00Z,26.1914,-97.0507,2.0,8.7821944,10.93823569,-99999.0,'11111222,11111222,99999999' 
TABS,ioos:station:wmo:42044:1,2015-11-04T11:00:00Z,26.1914,-97.0507,2.0,0.595468475,11.55062336,-99999.0,'11111222,11111222,99999999' 
TABS,ioos:station:wmo:42044:1,2015-11-04T11:30:00Z,26.1914,-97.0507,2.0,355.0142024,12.19615103,-99999.0,'11111222,11111222,99999999' 
TABS,ioos:station:wmo:42044:1,2015-11-04T12:00:00Z,26.1914,-97.0507,2.0,4.539498977,11.87725558,-99999.0,'11111222,11111222,99999999' 
TABS,ioos:station:wmo:42044:1,2015-11-04T12:30:00Z,26.1914,-97.0507,2.0,9.127861702,12.10325989,-99999.0,'11111222,11111222,99999999' 
TABS,ioos:station:wmo:42044:1,2015-11-04T13:00:00Z,26.1914,-97.0507,2.0,16.78890007,8.585965292,-99999.0,'11133222,11111222,99999999' 
TABS,ioos:station:wmo:42044:1,2015-11-04T13:30:00Z,26.1914,-97.0507,2.0,359.4263167,11.98060099,-99999.0,'11111222,11144222,99999999' 
TABS,ioos:station:wmo:42044:1,2015-11-04T14:00:00Z,26.1914,-97.0507,2.0,355.9029364,10.49682809,-99999.0,'11111222,11111222,99999999' 
TABS,ioos:station:wmo:42044:1,2015-11-04T14:30:00Z,26.1914,-97.0507,2.0,6.131504329,10.29891256,-99999.0,'11111222,11111222,99999999' 
TABS,ioos:station:wmo:42044:1,2015-11-04T15:00:00Z,26.1914,-97.0507,2.0,8.400493585,6.297563021,-99999.0,'11133222,11111222,99999999' 
TABS,ioos:station:wmo:42044:1,2015-11-04T15:30:00Z,26.1914,-97.0507,2.0,7.135240896,7.084864148,-99999.0,'11133222,11111222,99999999' 
TABS,ioos:station:wmo:42044:1,2015-11-04T16:00:00Z,26.1914,-97.0507,2.0,8.087546498,5.686554317,-99999.0,'11133222,11111222,99999999' 